| time (UTC) | temp C | wind direction | speed KPH | gust KPH | rain 1hr cm | rain 24hr cm | rain mn cm | humidity % | barometer mb |
| 20260503214538 | 15 | 242 | 20.9 | 30.6 | 0.00 | 0.00 | 0.00 | 34 | 1014.0 |
| 20260503214034 | 15 | 291 | 8.0 | 17.7 | 0.00 | 0.00 | 0.00 | 34 | 1013.9 |
| 20260503213533 | 15 | 284 | 4.8 | 6.4 | 0.00 | 0.00 | 0.00 | 34 | 1013.8 |
| 20260503213029 | 15 | 290 | 12.9 | 24.1 | 0.00 | 0.00 | 0.00 | 35 | 1013.9 |
| 20260503212527 | 15 | 224 | 8.0 | 24.1 | 0.00 | 0.00 | 0.00 | 35 | 1013.8 |
| 20260503212024 | 15 | 260 | 9.7 | 19.3 | 0.00 | 0.00 | 0.00 | 34 | 1013.9 |
| 20260503211521 | 14 | 231 | 9.7 | 19.3 | 0.00 | 0.00 | 0.00 | 35 | 1014.0 |
| 20260503211016 | 15 | 262 | 4.8 | 25.7 | 0.00 | 0.00 | 0.00 | 36 | 1013.9 |
| 20260503210514 | 15 | 268 | 9.7 | 22.5 | 0.00 | 0.00 | 0.00 | 33 | 1013.8 |
| 20260503210009 | 15 | 266 | 16.1 | 22.5 | 0.00 | 0.00 | 0.00 | 33 | 1013.8 |
| 20260503205506 | 15 | 239 | 4.8 | 25.7 | 0.00 | 0.00 | 0.00 | 33 | 1013.5 |
| 20260503205002 | 15 | 287 | 14.5 | 29.0 | 0.00 | 0.00 | 0.00 | 33 | 1013.8 |
| 20260503204459 | 15 | 264 | 6.4 | 22.5 | 0.00 | 0.00 | 0.00 | 35 | 1013.9 |
| 20260503203956 | 15 | 280 | 4.8 | 22.5 | 0.00 | 0.00 | 0.00 | 35 | 1013.9 |
| 20260503203454 | 15 | 240 | 6.4 | 25.7 | 0.00 | 0.00 | 0.00 | 35 | 1014.1 |
| 20260503202950 | 15 | 216 | 17.7 | 24.1 | 0.00 | 0.00 | 0.00 | 34 | 1014.2 |
| 20260503202448 | 15 | 242 | 14.5 | 29.0 | 0.00 | 0.00 | 0.00 | 32 | 1014.2 |
| 20260503201947 | 15 | 241 | 11.3 | 17.7 | 0.00 | 0.00 | 0.00 | 33 | 1014.1 |
| 20260503201444 | 15 | 269 | 12.9 | 19.3 | 0.00 | 0.00 | 0.00 | 33 | 1014.3 |
| 20260503200941 | 14 | 261 | 14.5 | 19.3 | 0.00 | 0.00 | 0.00 | 33 | 1014.1 |
| 20260503200438 | 14 | 290 | 4.8 | 16.1 | 0.00 | 0.00 | 0.00 | 34 | 1014.3 |
| 20260503195934 | 15 | 278 | 6.4 | 25.7 | 0.00 | 0.00 | 0.00 | 36 | 1014.4 |
| 20260503195432 | 15 | 273 | 8.0 | 22.5 | 0.00 | 0.00 | 0.00 | 35 | 1014.6 |
| 20260503194928 | 15 | 273 | 8.0 | 22.5 | 0.00 | 0.00 | 0.00 | 35 | 1014.6 |
| 20260503194425 | 16 | 290 | 9.7 | 24.1 | 0.00 | 0.00 | 0.00 | 33 | 1014.6 |
| 20260503193920 | 15 | 215 | 14.5 | 16.1 | 0.00 | 0.00 | 0.00 | 33 | 1014.5 |
| 20260503193416 | 15 | 278 | 4.8 | 16.1 | 0.00 | 0.00 | 0.00 | 34 | 1014.6 |
| 20260503192912 | 15 | 270 | 9.7 | 16.1 | 0.00 | 0.00 | 0.00 | 34 | 1014.8 |
| 20260503192409 | 15 | 270 | 9.7 | 16.1 | 0.00 | 0.00 | 0.00 | 34 | 1014.8 |
| 20260503191904 | 15 | 262 | 8.0 | 16.1 | 0.00 | 0.00 | 0.00 | 36 | 1014.9 |
| 20260503191402 | 14 | 159 | 9.7 | 12.9 | 0.00 | 0.00 | 0.00 | 34 | 1015.0 |
| 20260503190858 | 15 | 288 | 8.0 | 29.0 | 0.00 | 0.00 | 0.00 | 34 | 1015.2 |
| 20260503190356 | 15 | 288 | 8.0 | 29.0 | 0.00 | 0.00 | 0.00 | 34 | 1015.2 |
| 20260503185852 | 15 | 234 | 24.1 | 29.0 | 0.00 | 0.00 | 0.00 | 31 | 1015.2 |
| 20260503185349 | 15 | 250 | 4.8 | 12.9 | 0.00 | 0.00 | 0.00 | 33 | 1015.2 |
| 20260503184848 | 15 | 266 | 9.7 | 29.0 | 0.00 | 0.00 | 0.00 | 35 | 1015.4 |
| 20260503184345 | 15 | 266 | 9.7 | 29.0 | 0.00 | 0.00 | 0.00 | 35 | 1015.4 |
| 20260503183840 | 15 | 253 | 6.4 | 19.3 | 0.00 | 0.00 | 0.00 | 37 | 1015.4 |
| 20260503183338 | 15 | 325 | 9.7 | 17.7 | 0.00 | 0.00 | 0.00 | 34 | 1015.5 |
| 20260503182835 | 15 | 290 | 9.7 | 16.1 | 0.00 | 0.00 | 0.00 | 31 | 1015.4 |
| 20260503182334 | 14 | 263 | 4.8 | 12.9 | 0.00 | 0.00 | 0.00 | 35 | 1015.6 |
| 20260503181831 | 15 | 248 | 11.3 | 25.7 | 0.00 | 0.00 | 0.00 | 35 | 1015.5 |
| 20260503181328 | 15 | 248 | 11.3 | 25.7 | 0.00 | 0.00 | 0.00 | 35 | 1015.5 |
| 20260503180824 | 15 | 250 | 4.8 | 16.1 | 0.00 | 0.00 | 0.00 | 34 | 1015.5 |
| 20260503180323 | 15 | 240 | 17.7 | 25.7 | 0.00 | 0.00 | 0.00 | 32 | 1015.6 |
| 20260503175818 | 15 | 240 | 17.7 | 25.7 | 0.00 | 0.00 | 0.00 | 32 | 1015.6 |
| 20260503175317 | 13 | 257 | 4.8 | 11.3 | 0.00 | 0.00 | 0.00 | 36 | 1015.8 |
| 20260503174812 | 14 | 331 | 24.1 | 33.8 | 0.00 | 0.00 | 0.00 | 34 | 1015.8 |
| 20260503174311 | 13 | 237 | 12.9 | 17.7 | 0.00 | 0.00 | 0.00 | 34 | 1016.0 |
| 20260503173806 | 13 | 210 | 11.3 | 25.7 | 0.00 | 0.00 | 0.00 | 37 | 1015.8 |
| 20260503173302 | 13 | 187 | 6.4 | 24.1 | 0.00 | 0.00 | 0.00 | 36 | 1015.9 |
| 20260503172759 | 14 | 282 | 14.5 | 24.1 | 0.00 | 0.00 | 0.00 | 35 | 1015.9 |
| 20260503172256 | 13 | 315 | 6.4 | 30.6 | 0.00 | 0.00 | 0.00 | 39 | 1016.1 |
| 20260503171752 | 13 | 317 | 14.5 | 29.0 | 0.00 | 0.00 | 0.00 | 37 | 1016.3 |
| 20260503171249 | 13 | 107 | 3.2 | 17.7 | 0.00 | 0.00 | 0.00 | 42 | 1016.3 |
| 20260503170746 | 13 | 232 | 11.3 | 16.1 | 0.00 | 0.00 | 0.00 | 38 | 1016.5 |
| 20260503170243 | 13 | 206 | 4.8 | 19.3 | 0.00 | 0.00 | 0.00 | 44 | 1016.6 |
| 20260503160205 | 11 | 232 | 11.3 | 19.3 | 0.00 | 0.00 | 0.00 | 39 | 1017.1 |
| 20260503150635 | 10 | 202 | 6.4 | 11.3 | 0.00 | 0.00 | 0.00 | 41 | 1017.6 |
| 20260503150131 | 10 | 202 | 6.4 | 11.3 | 0.00 | 0.00 | 0.00 | 41 | 1017.6 |
| 20260503131025 | 7 | 278 | 4.8 | 8.0 | 0.00 | 0.00 | 0.00 | 49 | 1018.0 |
| 20260503130522 | 7 | 278 | 4.8 | 8.0 | 0.00 | 0.00 | 0.00 | 49 | 1018.0 |
| 20260503110413 | 1 | 222 | 1.6 | 1.6 | 0.00 | 0.00 | 0.00 | 84 | 1017.4 |
| 20260503090304 | 1 | 287 | 0.0 | 1.6 | 0.00 | 0.00 | 0.00 | 89 | 1017.2 |
| 20260503081231 | 1 | 298 | 1.6 | 1.6 | 0.00 | 0.00 | 0.00 | 89 | 1017.2 |
| 20260503080726 | 1 | 298 | 0.0 | 1.6 | 0.00 | 0.00 | 0.00 | 88 | 1017.1 |
| 20260503080224 | 1 | 298 | 0.0 | 0.0 | 0.00 | 0.00 | 0.00 | 88 | 1017.2 |
| 20260503072701 | 0 | 298 | 0.0 | 1.6 | 0.00 | 0.00 | 0.00 | 91 | 1017.1 |
| 20260503072157 | 0 | 298 | 1.6 | 1.6 | 0.00 | 0.00 | 0.00 | 91 | 1017.1 |
| 20260503071654 | 0 | 298 | 0.0 | 0.0 | 0.00 | 0.00 | 0.00 | 91 | 1017.2 |
| 20260503071151 | 0 | 298 | 0.0 | 0.0 | 0.00 | 0.00 | 0.00 | 91 | 1017.0 |
| 20260503070648 | 0 | 298 | 0.0 | 1.6 | 0.00 | 0.00 | 0.00 | 91 | 1017.1 |
| 20260503070146 | 0 | 298 | 0.0 | 0.0 | 0.00 | 0.00 | 0.00 | 92 | 1017.1 |
| 20260503060110 | 1 | 298 | 0.0 | 0.0 | 0.00 | 0.00 | 0.00 | 91 | 1017.3 |
| 20260503055102 | 1 | 298 | 0.0 | 0.0 | 0.00 | 0.00 | 0.00 | 91 | 1017.5 |
| 20260503054557 | 1 | 298 | 0.0 | 0.0 | 0.00 | 0.00 | 0.00 | 90 | 1017.5 |
| 20260503054055 | 1 | 298 | 0.0 | 0.0 | 0.00 | 0.00 | 0.00 | 89 | 1017.5 |
| 20260503053553 | 1 | 298 | 0.0 | 0.0 | 0.00 | 0.00 | 0.00 | 87 | 1017.4 |
| 20260503053050 | 2 | 298 | 0.0 | 0.0 | 0.00 | 0.00 | 0.00 | 87 | 1017.5 |
| 20260503052547 | 2 | 298 | 0.0 | 0.0 | 0.00 | 0.00 | 0.00 | 86 | 1017.6 |
| 20260503052043 | 2 | 298 | 0.0 | 0.0 | 0.00 | 0.00 | 0.00 | 84 | 1017.4 |
| 20260503051539 | 2 | 298 | 0.0 | 0.0 | 0.00 | 0.00 | 0.00 | 84 | 1017.5 |
| 20260503051037 | 2 | 336 | 1.6 | 1.6 | 0.00 | 0.00 | 0.00 | 86 | 1017.5 |
| 20260503050532 | 2 | 347 | 0.0 | 1.6 | 0.00 | 0.00 | 0.00 | 84 | 1017.5 |
| 20260503050030 | 2 | 348 | 0.0 | 0.0 | 0.00 | 0.00 | 0.00 | 85 | 1017.3 |
| 20260503045527 | 2 | 348 | 0.0 | 0.0 | 0.00 | 0.00 | 0.00 | 85 | 1017.6 |
| 20260503045024 | 2 | 348 | 0.0 | 0.0 | 0.00 | 0.00 | 0.00 | 86 | 1017.6 |
| 20260503044521 | 2 | 348 | 0.0 | 0.0 | 0.00 | 0.00 | 0.00 | 86 | 1017.6 |
| 20260503044019 | 2 | 348 | 0.0 | 0.0 | 0.00 | 0.00 | 0.00 | 86 | 1017.5 |
| 20260503043514 | 2 | 348 | 0.0 | 0.0 | 0.00 | 0.00 | 0.00 | 86 | 1017.5 |
| 20260503043011 | 2 | 348 | 0.0 | 0.0 | 0.00 | 0.00 | 0.00 | 86 | 1017.5 |
| 20260503042508 | 2 | 348 | 0.0 | 0.0 | 0.00 | 0.00 | 0.00 | 87 | 1017.7 |
| 20260503042004 | 2 | 348 | 0.0 | 0.0 | 0.00 | 0.00 | 0.00 | 88 | 1017.5 |
| 20260503041501 | 2 | 348 | 0.0 | 0.0 | 0.00 | 0.00 | 0.00 | 88 | 1017.6 |
| 20260503040959 | 2 | 348 | 0.0 | 0.0 | 0.00 | 0.00 | 0.00 | 89 | 1017.7 |
| 20260503040456 | 2 | 348 | 0.0 | 0.0 | 0.00 | 0.00 | 0.00 | 90 | 1017.7 |
| 20260503035953 | 2 | 348 | 0.0 | 0.0 | 0.00 | 0.30 | 0.30 | 90 | 1017.7 |
| 20260503035450 | 2 | 348 | 0.0 | 0.0 | 0.00 | 0.30 | 0.30 | 90 | 1017.5 |
| 20260503034948 | 2 | 348 | 0.0 | 1.6 | 0.00 | 0.30 | 0.30 | 89 | 1017.7 |
| 20260503034445 | 2 | 348 | 0.0 | 1.6 | 0.00 | 0.30 | 0.30 | 89 | 1017.6 |
| 20260503033942 | 2 | 349 | 0.0 | 0.0 | 0.00 | 0.30 | 0.30 | 88 | 1017.6 |
| 20260503033439 | 2 | 349 | 0.0 | 0.0 | 0.00 | 0.30 | 0.30 | 89 | 1017.7 |
| 20260503032937 | 2 | 349 | 0.0 | 0.0 | 0.00 | 0.30 | 0.30 | 88 | 1017.8 |
| 20260503032435 | 2 | 349 | 0.0 | 0.0 | 0.00 | 0.30 | 0.30 | 88 | 1017.6 |
| 20260503031932 | 2 | 349 | 0.0 | 0.0 | 0.00 | 0.30 | 0.30 | 88 | 1017.9 |
| 20260503031430 | 2 | 349 | 0.0 | 0.0 | 0.00 | 0.30 | 0.30 | 88 | 1017.9 |
| 20260503030926 | 2 | 349 | 0.0 | 0.0 | 0.00 | 0.30 | 0.30 | 88 | 1017.9 |
| 20260503030423 | 2 | 349 | 0.0 | 0.0 | 0.00 | 0.30 | 0.30 | 88 | 1017.7 |
| 20260503025920 | 2 | 349 | 0.0 | 0.0 | 0.00 | 0.30 | 0.30 | 88 | 1017.9 |
| 20260503025417 | 2 | 349 | 0.0 | 0.0 | 0.00 | 0.30 | 0.30 | 86 | 1018.0 |
| 20260503024914 | 2 | 349 | 0.0 | 0.0 | 0.00 | 0.30 | 0.30 | 86 | 1018.0 |
| 20260503024411 | 2 | 349 | 0.0 | 0.0 | 0.00 | 0.30 | 0.30 | 85 | 1017.9 |
| 20260503023908 | 2 | 349 | 0.0 | 0.0 | 0.00 | 0.30 | 0.30 | 85 | 1018.0 |
| 20260503023405 | 2 | 349 | 0.0 | 0.0 | 0.00 | 0.30 | 0.30 | 84 | 1018.1 |
| 20260503022902 | 2 | 349 | 0.0 | 0.0 | 0.00 | 0.30 | 0.30 | 84 | 1018.1 |
| 20260503022356 | 2 | 349 | 0.0 | 0.0 | 0.00 | 0.30 | 0.30 | 84 | 1018.1 |
| 20260503021852 | 2 | 349 | 0.0 | 0.0 | 0.00 | 0.30 | 0.30 | 84 | 1018.0 |
| 20260503021349 | 2 | 349 | 0.0 | 0.0 | 0.00 | 0.30 | 0.30 | 84 | 1017.9 |
| 20260503020846 | 2 | 349 | 0.0 | 0.0 | 0.00 | 0.30 | 0.30 | 83 | 1018.1 |
| 20260503020344 | 2 | 349 | 0.0 | 0.0 | 0.00 | 0.30 | 0.30 | 83 | 1018.0 |
| 20260503015840 | 2 | 349 | 0.0 | 0.0 | 0.00 | 0.30 | 0.30 | 83 | 1018.1 |
| 20260503015337 | 2 | 349 | 0.0 | 0.0 | 0.00 | 0.30 | 0.30 | 81 | 1018.0 |
| 20260503014833 | 2 | 349 | 0.0 | 0.0 | 0.00 | 0.30 | 0.30 | 81 | 1018.0 |
| 20260503014331 | 2 | 349 | 0.0 | 0.0 | 0.00 | 0.30 | 0.30 | 81 | 1017.8 |
| 20260503013828 | 2 | 349 | 0.0 | 0.0 | 0.00 | 0.30 | 0.30 | 81 | 1018.1 |
| 20260503013325 | 2 | 349 | 0.0 | 0.0 | 0.00 | 0.30 | 0.30 | 79 | 1017.9 |
| 20260503012822 | 2 | 349 | 0.0 | 0.0 | 0.00 | 0.30 | 0.30 | 80 | 1017.9 |
| 20260503012320 | 2 | 349 | 0.0 | 0.0 | 0.00 | 0.30 | 0.30 | 80 | 1017.8 |
| 20260503011816 | 2 | 349 | 0.0 | 0.0 | 0.00 | 0.30 | 0.30 | 78 | 1018.0 |
| 20260503011313 | 2 | 349 | 0.0 | 0.0 | 0.00 | 0.30 | 0.30 | 76 | 1017.9 |
| 20260503010810 | 2 | 349 | 0.0 | 0.0 | 0.00 | 0.30 | 0.30 | 76 | 1017.9 |
| 20260503010307 | 2 | 349 | 0.0 | 0.0 | 0.00 | 0.30 | 0.30 | 75 | 1017.9 |
| 20260503005804 | 3 | 349 | 0.0 | 0.0 | 0.00 | 0.30 | 0.30 | 75 | 1017.9 |
| 20260503005304 | 3 | 349 | 0.0 | 0.0 | 0.00 | 0.30 | 0.30 | 73 | 1018.0 |
| 20260503004757 | 3 | 349 | 0.0 | 0.0 | 0.00 | 0.30 | 0.30 | 70 | 1017.8 |
| 20260503004255 | 3 | 349 | 0.0 | 0.0 | 0.00 | 0.30 | 0.30 | 67 | 1017.8 |
| 20260503003752 | 3 | 349 | 0.0 | 0.0 | 0.00 | 0.30 | 0.30 | 68 | 1017.9 |
| 20260503003249 | 4 | 348 | 0.0 | 0.0 | 0.00 | 0.30 | 0.30 | 64 | 1017.5 |
| 20260503002746 | 4 | 348 | 0.0 | 0.0 | 0.00 | 0.30 | 0.30 | 63 | 1017.6 |
| 20260503002243 | 5 | 348 | 0.0 | 0.0 | 0.00 | 0.30 | 0.30 | 60 | 1017.8 |
| 20260503001739 | 5 | 348 | 1.6 | 1.6 | 0.00 | 0.30 | 0.30 | 58 | 1017.6 |
| 20260503001235 | 5 | 347 | 1.6 | 1.6 | 0.00 | 0.30 | 0.30 | 58 | 1017.7 |
| 20260503000734 | 5 | 347 | 1.6 | 1.6 | 0.00 | 0.30 | 0.30 | 58 | 1017.7 |
| 20260503000233 | 5 | 347 | 1.6 | 1.6 | 0.00 | 0.30 | 0.30 | 58 | 1017.9 |
| 20260502235727 | 5 | 347 | 1.6 | 1.6 | 0.00 | 0.30 | 0.30 | 58 | 1017.6 |
| 20260502235225 | 5 | 334 | 4.8 | 11.3 | 0.00 | 0.30 | 0.30 | 56 | 1017.6 |
| 20260502234721 | 5 | 345 | 3.2 | 4.8 | 0.00 | 0.30 | 0.30 | 57 | 1017.6 |
| 20260502234219 | 5 | 342 | 4.8 | 4.8 | 0.00 | 0.30 | 0.30 | 57 | 1017.6 |
| 20260502233714 | 5 | 323 | 8.0 | 11.3 | 0.00 | 0.30 | 0.30 | 55 | 1017.5 |
| 20260502233211 | 5 | 21 | 6.4 | 12.9 | 0.00 | 0.30 | 0.30 | 56 | 1017.6 |
| 20260502232707 | 5 | 339 | 3.2 | 8.0 | 0.00 | 0.30 | 0.30 | 57 | 1017.7 |
| 20260502232205 | 5 | 336 | 4.8 | 6.4 | 0.00 | 0.30 | 0.30 | 57 | 1017.7 |
| 20260502231701 | 5 | 3 | 3.2 | 4.8 | 0.00 | 0.30 | 0.30 | 57 | 1017.6 |
| 20260502231159 | 5 | 350 | 1.6 | 8.0 | 0.00 | 0.30 | 0.30 | 55 | 1017.7 |
| 20260502230657 | 5 | 335 | 9.7 | 12.9 | 0.00 | 0.30 | 0.30 | 54 | 1017.6 |
| 20260502230155 | 5 | 3 | 8.0 | 17.7 | 0.00 | 0.30 | 0.30 | 54 | 1017.5 |
| 20260502225651 | 5 | 359 | 4.8 | 8.0 | 0.00 | 0.30 | 0.30 | 54 | 1017.6 |
| 20260502225149 | 5 | 4 | 4.8 | 11.3 | 0.00 | 0.30 | 0.30 | 54 | 1017.6 |
| 20260502224644 | 5 | 14 | 11.3 | 22.5 | 0.00 | 0.30 | 0.30 | 53 | 1017.4 |
| 20260502224141 | 5 | 14 | 11.3 | 22.5 | 0.00 | 0.30 | 0.30 | 53 | 1017.4 |
| 20260502223639 | 6 | 329 | 6.4 | 24.1 | 0.00 | 0.30 | 0.30 | 53 | 1017.5 |
| 20260502223137 | 6 | 299 | 11.3 | 12.9 | 0.00 | 0.30 | 0.30 | 51 | 1017.4 |
| 20260502222634 | 6 | 22 | 9.7 | 16.1 | 0.00 | 0.30 | 0.30 | 51 | 1017.5 |
| 20260502222131 | 6 | 349 | 4.8 | 22.5 | 0.00 | 0.30 | 0.30 | 50 | 1017.4 |
| 20260502221626 | 6 | 352 | 6.4 | 11.3 | 0.00 | 0.30 | 0.30 | 48 | 1017.6 |
| 20260502221124 | 6 | 319 | 8.0 | 16.1 | 0.00 | 0.30 | 0.30 | 46 | 1017.3 |
| 20260502220620 | 6 | 311 | 9.7 | 11.3 | 0.00 | 0.30 | 0.30 | 48 | 1017.4 |
| 20260502220116 | 6 | 320 | 4.8 | 16.1 | 0.00 | 0.30 | 0.30 | 46 | 1017.5 |
| 20260502215614 | 6 | 346 | 4.8 | 6.4 | 0.00 | 0.30 | 0.30 | 47 | 1017.4 |
| 20260502215110 | 6 | 310 | 1.6 | 8.0 | 0.00 | 0.30 | 0.30 | 48 | 1017.3 |